Voltar ao catálogo

FENGYUN 1C DEB

AtivoSSO
NORAD 30332·DEBRIS·🇨🇳 China

Lançado May 10, 1999 de Taiyuan Satellite Launch Center

Loading…

Próximas Passagens (próximas 24 horas)

TLE

AtualizadoSource: Space-Track

Época: Sep 14, 2026, 10:29 UTC

1 30332U 99025AAT 26257.43716597  .00000212  00000-0  23207-3 0  9992
2 30332  99.7468 240.3658 0177820 106.8939  44.1098 13.76960333985093

Acompanhe FENGYUN 1C DEB em tempo real com AllMySat

Download on the App Store